www.pogodaiklimat.ru

Погода и климат >> Архив погоды >> Иран >> Ahwaz


ПОГОДА в Ahwaz

  • Прогноз погоды в Ahwaz
  • Монитор погоды в Ahwaz
  • Климат города

АРХИВ ПОГОДЫ в Ahwaz

Время (UTC), дата Ветер
(напр.,м/с)
 
Видим.   Явления Облачность Т
(С)
Тd
(С)
f
(%)
Тe
(С)
Тes
(С)
Комфортность P
(гПа)
Po
(гПа)
Тmin
(С)
Tmax
(С)
R
(мм)
R24
(мм)
S
(см)
00 13.09 штиль 0 8000 м мгла ясно +28.3 +10.0 32 +29 +29 жарко 1002.4 1000.0
03 13.09 Ю 2 2400 м дымка 1/0
[Ac trans]
+29.3 +26.5 85 +45 +45 опасность
перегрева
1002.9 1000.5 +27.9
06 13.09 ЮВ 2 3500 м мгла ясно +33.4 +25.9 65 +49 +59 опасность
перегрева
1004.0 1001.6
09 13.09 Ю 2 7000 м мгла ясно +41.9 +22.9 34 +51 +67 опасность
перегрева
1002.8 1000.4
12 13.09 З 2 10 км ясно +45.3 +15.4 18 +46 +54 опасность
перегрева
1001.0 998.6
15 13.09 С 2 10 км ясно +41.5 +20.4 30 +47 +47 опасность
перегрева
1000.4 997.9 +47.1
18 13.09 ЮЗ 1 10 км ясно +34.0 +18.1 39 +38 +38 очень
душно
1001.1 998.7
21 13.09 З 1 6000 м дым ясно +30.6 +18.7 49 +36 +36 очень
душно
1000.5 998.1
00 14.09 Ю 1 8000 м мгла ясно +29.5 +14.5 40 +32 +32 душно 1000.1 997.7
03 14.09 В 1 4000 м мгла ясно +28.3 +20.8 64 +35 +35 очень
душно
1001.0 998.6 +27.8
06 14.09 Ю 2 6000 м мгла ясно +37.5 +22.8 43 +47 +56 опасность
перегрева
1002.6 1000.2
09 14.09 З 2 7000 м мгла ясно +44.8 +15.9 19 +46 +63 опасность
перегрева
1001.5 999.1
12 14.09 З 2 10 км ясно +46.6 +10.3 12 +45 +53 опасность
перегрева
1000.0 997.6
15 14.09 ЮЗ 1 10 км ясно +38.4 +12.9 22 +38 +38 очень
жарко
1000.4 998.0 +47.1
18 14.09 ЮВ 1 10 км ясно +34.8 +13.6 28 +36 +36 душно 1001.9 999.5
21 14.09 З 1 7000 м мгла ясно +31.2 +11.0 29 +31 +31 жарко 1001.8 999.4
00 15.09 Ю 2 7000 м мгла ясно +31.6 +16.7 41 +35 +35 очень
душно
1001.7 999.3
03 15.09 Ю 2 5000 м мгла ясно +30.4 +18.2 48 +35 +35 очень
душно
1002.2 999.8 +30.0
06 15.09 Ю 3 10 км ясно +35.9 +19.4 38 +41 +49 опасность
перегрева
1003.8 1001.4
09 15.09 Ю 2 10 км ясно +43.3 +18.3 24 +47 +63 опасность
перегрева
1003.4 1001.0
12 15.09 З 1 10 км ясно +46.8 +7.7 10 +45 +53 опасность
перегрева
1002.0 999.6
15 15.09 Ю 1 10 км ясно +43.6 +5.5 10 +41 +41 опасность
перегрева
1002.0 999.6 +47.4
18 15.09 Ю 2 10 км ясно +37.3 +9.8 19 +36 +36 очень
жарко
1003.1 1000.7
21 15.09 ЮВ 2 10 км ясно +31.5 +18.8 47 +37 +37 очень
душно
1003.1 1000.5
00 16.09 Ю 2 3000 м дымка ясно +30.4 +27.6 85 +49 +49 опасность
перегрева
1002.9 1000.5
03 16.09 ЮВ 3 1100 м дымка ясно +29.4 +27.8 91 +48 +48 опасность
перегрева
1003.5 1001.1 +29.3
06 16.09 В 2 1400 м мгла ясно +33.4 +28.1 74 +54 +64 опасность
перегрева
1004.7 1002.3
09 16.09 З 2 3500 м мгла ясно +41.9 +20.7 30 +48 +64 опасность
перегрева
1003.1 1000.7
12 16.09 С 3 5000 м мгла ясно +45.6 +11.8 14 +45 +51 опасность
перегрева
1001.3 998.9
15 16.09 З 3 10 км ясно +42.7 +7.3 12 +40 +40 очень
жарко
1001.1 998.7 +46.1
18 16.09 СЗ 6 8000 м мгла ясно +38.8 +8.5 16 +37 +37 очень
жарко
1002.2 999.8
21 16.09 СЗ 4 8000 м мгла ясно +34.5 +8.3 20 +33 +33 жарко 1001.6 999.2
00 17.09 СЗ 1 8000 м мгла ясно +29.3 +7.8 26 +29 +29 жарко 1001.2 998.8
03 17.09 ЮВ 1 7000 м мгла ясно +26.4 +17.8 59 +26 +26 жарко 1002.1 999.7 +25.8
06 17.09 Ю 2 6000 м мгла ясно +34.1 +25.5 61 +49 +58 опасность
перегрева
1003.3 1000.9
09 17.09 З 2 7000 м мгла ясно +42.4 +18.2 25 +46 +62 опасность
перегрева
1002.3 999.9
12 17.09 СЗ 5 10 км ясно +46.6 +9.8 12 +43 +47 опасность
перегрева
1000.4 998.0
15 17.09 З 2 10 км ясно +40.8 +4.6 11 +38 +38 очень
жарко
1000.5 998.1 +47.1
18 17.09 СЗ 4 10 км ясно +39.3 +6.9 14 +37 +37 очень
жарко
1001.6 999.2
21 17.09 СЗ 2 10 км ясно +35.7 +15.5 30 +34 +34 очень
жарко
1001.7 999.0
00 18.09 ЮВ 1 6000 м мгла ясно +29.7 +24.1 72 +41 +41 опасность
перегрева
1001.9 999.5
03 18.09 ЮВ 2 3000 м дымка ясно +29.8 +26.4 82 +46 +46 опасность
перегрева
1003.1 1000.7 +28.8
06 18.09 ЮВ 3 2200 м мгла ясно +35.0 +26.7 62 +52 +60 опасность
перегрева
1004.8 1002.4
09 18.09 СВ 1 4000 м мгла ясно +41.5 +20.4 30 +47 +66 опасность
перегрева
1003.5 1001.1
12 18.09 З 2 8000 м мгла ясно +44.4 +18.6 23 +48 +55 опасность
перегрева
1002.0 999.6
15 18.09 Ю 2 7000 м мгла ясно +39.8 +18.4 29 +43 +43 опасность
перегрева
1002.3 999.9 +45.6
18 18.09 Ю 4 6000 м мгла ясно +35.2 +26.5 61 +52 +52 опасность
перегрева
1004.9 1002.5
21 18.09 Ю 3 4000 м мгла 3/0
[Ac trans]
+33.2 +26.5 68 +50 +50 опасность
перегрева
1005.2 1002.8
00 19.09 В 1 5000 м мгла 3/0
[Ac trans]
+31.9 +26.8 74 +49 +49 опасность
перегрева
1005.4 1003.0
03 19.09 В 1 4000 м мгла ясно +30.5 +26.0 77 +46 +46 опасность
перегрева
1005.4 1003.0 +30.3
06 19.09 ЮВ 2 4500 м мгла ясно +37.2 +23.3 45 +47 +56 опасность
перегрева
1006.8 1004.4
09 19.09 З 2 6000 м мгла ясно +41.9 +19.9 28 +47 +63 опасность
перегрева
1005.4 1003.0
12 19.09 ЮЗ 2 6000 м мгла ясно +43.5 +20.4 27 +49 +56 опасность
перегрева
1003.4 1001.0
15 19.09 ЮЗ 2 4000 м мгла ясно +39.2 +20.0 33 +45 +45 опасность
перегрева
1003.4 1001.0 +43.9
18 19.09 ЮВ 1 8000 м мгла 1/0
[Ac trans]
+37.1 +19.5 36 +42 +42 опасность
перегрева
1005.1 1002.7

 

Местоположение метеостанции Ahwaz (Иран): широта 31.33 долгота 48.67 высота над уровнем моря 22 м.

В архиве по умолчанию представлена погода в Ahwaz за последнюю неделю. Архивные данные за месяц целиком и за предыдущие месяцы, начиная с января 2011 года, Вы можете получить, выбрав интересующий диапазон дат из раскрывающегося списка и нажав кнопку "Ввод!".


*Определитесь, кто Вы:
робот инопланетянин человек

Внимание! Время в таблицах - всемирное. Для получения местного времени необходимо прибавить поправку, которая в Ahwaz равна 3.5 ч.

Смотрите также архив погоды в соседних городах и на ближайших метеорологических станциях:

Погода в Masjed-Soleyman (Иран) (92 км)
Погода в Safi-Abad Dezful (Иран) (107 км)
Погода в Omidieh (Иран) (114 км)
Погода в Abadan (Иран) (114 км)
Погода в Basrah (Ирак) (120 км)
Погода в Basrah Airport (Ирак) (124 км)
Погода в Fao (Ирак) (151 км)
Погода в Amarah (Ирак) (153 км)
Погода в Abdaly (Кувейт) (167 км)
Погода в Bubiyan (Кувейт) (176 км)

Пояснения к столбцам:

Ветер - указаны скорость ветра в м/с - средняя за 10 мин, порывы в срок и между сроками (в фигурных скобках) и направление, откуда дует ветер: С - северный, СВ - северо-восточный, В - восточный, ЮВ - юго-восточный, Ю - южный, ЮЗ - юго-западный, З - западный, СЗ - северо-западный.
Видимость - горизонтальная дальность видимости в метрах или километрах. При видимости от 1 до 10 км при отсутствии осадков обычно наблюдается дымка, при ухудшении видимости до 1 км и менее - туман. В сухую погоду видимость может ухудшаться дымом, пылью или мглою.
Явления - указаны атмосферные явления, наблюдавшиеся в срок или в последний час перед сроком; фигурными скобками обозначены явления, наблюдавшиеся между сроками (за 1-3 часа до срока); квадратными скобками обозначены град или гололедные отложения с указанием их диаметра в мм.
Облачность - указаны через наклонную черту общая и нижняя облачность в баллах и высота нижней границы облаков в метрах; квадратными скобками обозначены формы облаков: Ci - перистые, Cs - перисто-слоистые, Cc - перисто-кучевые, Ac - высококучевые, As - высокослоистые, Sc - слоисто-кучевые, Ns - слоисто-дождевые, Cu - кучевые, Cb - кучево-дождевые. Подробнее классификацию облаков см. в Атласе облаков (PDF).
T - Температура воздуха - температура, измеренная на высоте 2 м над землей.
Td - Температура точки росы - температура, при понижении до которой содержащийся в воздухе водяной пар достигнет насыщения.
f - Относительная влажность воздуха - влажноcть воздуха, измеренная на высоте 2 м над землей.
Te - Эффективная температура - температура, которую ощущает одетый по сезону человек в тени. Характеристика душности погоды. При расчете учитывается влияние влажности воздуха и скорости ветра на теплоощущения человека.
Tes - Эффективная температура на солнце - температура, которую ощущает человек, с поправкой на солнечный нагрев. Характеристика знойности погоды. Зависит от высоты солнца над горизонтом, облачности и скорости ветра. Ночью, в пасмурную погоду, а также при ветре 12 м/с и более поправка равна нулю.
P - Атмосферное давление - приведенное к уровню моря атмосферное давление.
Po - Атмосферное давление - измеренное на уровне метеостанции атмосферное давление.
Tmin - Минимальная температура - минимум температуры воздуха на высоте 2 м над землей.
Tmax - Максимальная температура - максимум температуры воздуха на высоте 2 м над землей.
R - Количество осадков - Количество выпавших осадков за период времени, мм. При наведении курсора мыши на число - период времени, за который выпало указанное количество осадков.
R24 - Количество осадков - Количество выпавших осадков за 24 часа, мм.
S - Снежный покров - Высота снежного покрова, см. При наведении курсора мыши на число - состояние снежного покрова и степень покрытия местности в баллах.